STARLINK-2331

decayed
NORAD ID: 47875 Int'l Des: 2021-021 Owner: SPXS Country: US Constellation: starlink
LEOCIRCULAR
グループ

STARLINK-2331について

説明を読み込み中...

高度履歴

Altitude vs Time

uPlot chart will show altitude changes over time

軌道要素

1 47875U 21021R 25024.10073676 .17960486 12472-4 53404-3 0 9990
2 47875 53.0186 271.1579 0003778 239.6250 277.4435 16.45106103214523
Epoch: Jan 24, 2025 • Age: 5625 hours

現在のステータス

Position data unavailable
打ち上げ日 Mar 14, 2021
運用期間 4.5 years
落下予定日 Jan 24, 2025
タイプ internet

技術仕様

分類 Payload
質量 260.00 kg
乾燥質量 248.00 kg
総質量 260.00 kg
長さ 0.20 m
直径 2.80 m
スパン 9.00 m
形状 Box + pan
製造者 SPXS
バスタイプ Starlink
フェーズステータス Unknown Transfer Status
所有者/国 SPXS/US

大規模コンステレーション

Loading constellations...